Location: Hilton Head Island
(32.2163°N, 80.7526°W)
Time: 13:15:54
(UTC-05:00)

Vanguard 2 - Pass Details

Date: 17 February 2026
Orbit: 553 x 2896 km, 32.9° (Epoch: 6 March)

Event Time Altitude Azimuth Distance (km) Brightness Sun altitude
Exits shadow 05:19:23 24° 213° (SSW) 1,867 9.2 -22.6°
Maximum altitude 05:22:28 39° 161° (SSE) 1,179 8.6 -22.0°
Drops below altitude 10° 05:26:46 10° 91° (E) 2,046 10.9 -21.1°
Sets 05:28:52 0° 83° (E) 2,835 12.0 -20.6°
